Home > Weather > Shawinigan > Past weeks

Flag for Canada Weather for the Past 2 Weeks in Shawinigan, Quebec, Canada

Now
6 °F

Frigid.


Feels Like: -6 °F
Forecast: -8 / 12 °F
Wind: 7 mph from North

Location: Shawinigan CS

Current Time: Feb 13, 2016 at 12:36:32 AM

Latest Report: Feb 13, 2016 at 12:00 AM


Visibility: N/A

Pressure: 29.76 "Hg

Humidity: 77%

Dew point: 0 °F

Location of ShawiniganLocation

Historic Weather in Shawinigan — Graph

°F

Shawinigan Temperature Yesterday

Maximum temperature yesterday: 8 °F (at 4:00 PM)
Minimum temperature yesterday: -12 °F (at 7:00 AM)
Average temperature yesterday: 0 °F

High & Low Weather Summary for the Past Weeks

 TemperatureHumidityPressure
High37 °F (Feb 8, 3:00 PM)99% (Feb 8, 4:00 PM)30.08 "Hg (Feb 8, 4:00 PM)
Low-12 °F (Feb 12, 7:00 AM)53% (Feb 12, 3:00 PM)29.52 "Hg (Feb 10, 2:00 PM)
Average10 °F73%29.77 "Hg
* Reported Feb 8 3:00 PM — Feb 12 11:00 PM, Shawinigan, Weather by CustomWeather, © 2016

Note: Actual official high and low records may vary slightly from our data, if they occured in-between our weather recording intervals... More about our weather records

Advertising

Shawinigan Weather History for the Previous 24 Hours

 ConditionsComfort  
Time TempWeatherWind HumidityBarometerVisibility
11:00 PM
Fri, Feb 12
7 °FFrigid.7 mph81%29.77 "HgN/A
10:00 PM7 °FFrigid.5 mph81%29.78 "HgN/A
9:00 PM6 °FFrigid.6 mph82%29.80 "HgN/A
8:00 PM7 °FFrigid.7 mph88%29.82 "HgN/A
7:00 PM7 °FFrigid.6 mph81%29.85 "HgN/A
6:00 PM7 °FFrigid.5 mph78%29.87 "HgN/A
5:00 PM8 °FFrigid.3 mph68%29.88 "HgN/A
4:00 PM8 °FFrigid.5 mph58%29.89 "HgN/A
3:00 PM8 °FFrigid.7 mph53%29.92 "HgN/A
2:00 PM6 °FFrigid.6 mph58%29.95 "HgN/A
1:00 PM5 °FFrigid.10 mph56%29.97 "HgN/A
12:00 PM4 °FFrigid.7 mph58%30.00 "HgN/A
11:00 AM2 °FFrigid.5 mph58%30.02 "HgN/A
10:00 AM-2 °FFrigid.6 mph63%30.04 "HgN/A
9:00 AM-5 °FFrigid.No wind65%30.06 "HgN/A
8:00 AM-8 °FFrigid.1 mph63%30.07 "HgN/A
7:00 AM-12 °FExtremely cold.1 mph73%30.08 "HgN/A
6:00 AM-11 °FExtremely cold.1 mph73%30.06 "HgN/A
5:00 AM-9 °FFrigid.1 mph70%30.07 "HgN/A
4:00 AM-7 °FFrigid.5 mph70%30.06 "HgN/A
3:00 AM-5 °FFrigid.5 mph63%30.07 "HgN/A
2:00 AM-5 °FFrigid.5 mph62%30.07 "HgN/A
1:00 AM-3 °FFrigid.3 mph59%30.05 "HgN/A
12:00 AM-2 °FFrigid.7 mph60%30.03 "HgN/A
Weather by CustomWeather, © 2016

See weather overviewHow to use our weather pages